FW3241 Weather Reports


Display with metric or nautical units.
time (UTC)temp
F
wind
direction
speed
MPH
gust
MPH
rain 1hr
in
rain 24hr
in
rain mn
in
humidity
%
barometer
mb
20260509211513 66 223 1.0 2.0 0.00 0.00 0.00 38 1011.8
20260509210018 66 235 0.0 3.0 0.00 0.00 0.00 42 1012.1
20260509204514 65 212 1.0 4.0 0.00 0.00 0.00 44 1012.0
20260509203016 66 238 2.0 5.0 0.00 0.00 0.00 42 1012.1
20260509201510 66 238 0.0 4.0 0.00 0.00 0.00 40 1011.8
20260509200011 67 202 0.0 3.0 0.00 0.00 0.00 42 1012.0
20260509194508 67 242 2.0 4.0 0.00 0.00 0.00 39 1012.0
20260509193008 67 248 2.0 5.0 0.00 0.00 0.00 41 1012.2
20260509191509 67 232 2.0 4.0 0.00 0.00 0.00 42 1012.4
20260509190014 67 205 0.0 3.0 0.00 0.00 0.00 42 1012.1
20260509184508 68 240 2.0 7.0 0.00 0.00 0.00 42 1012.0
20260509183004 68 191 1.0 5.0 0.00 0.00 0.00 41 1011.9
20260509181501 68 255 3.0 5.0 0.00 0.00 0.00 38 1012.3
20260509180059 67 249 2.0 7.0 0.00 0.00 0.00 41 1012.2
20260509174601 66 242 1.0 8.0 0.00 0.00 0.00 40 1012.1
20260509173106 66 207 0.0 7.0 0.00 0.00 0.00 41 1012.1
20260509171612 64 191 1.0 7.0 0.00 0.00 0.00 46 1012.3
20260509170046 63 198 1.0 5.0 0.00 0.00 0.00 47 1012.8
20260509164541 61 236 0.0 3.0 0.00 0.00 0.00 46 1013.0
20260509163038 59 195 1.0 4.0 0.00 0.00 0.00 48 1013.0
20260509161536 58 180 1.0 6.0 0.00 0.00 0.00 52 1013.0
20260509160031 58 218 1.0 5.0 0.00 0.00 0.00 56 1013.0
20260509154534 57 195 1.0 4.0 0.00 0.00 0.00 57 1013.1
20260509153031 56 186 2.0 4.0 0.00 0.00 0.00 56 1013.0
20260509151526 56 165 2.0 7.0 0.00 0.00 0.00 58 1013.0
20260509150022 55 156 1.0 4.0 0.00 0.00 0.00 59 1012.8
20260509144520 54 196 1.0 3.0 0.00 0.00 0.00 61 1012.8
20260509143023 54 190 1.0 3.0 0.00 0.00 0.00 62 1012.6
20260509141522 53 188 1.0 3.0 0.00 0.00 0.00 62 1012.7
20260509140013 53 195 1.0 3.0 0.00 0.00 0.00 62 1012.7
20260509134512 52 200 0.0 2.0 0.00 0.00 0.00 63 1012.9
20260509133007 51 162 0.0 1.0 0.00 0.00 0.00 66 1013.1
20260509131508 50 162 0.0 1.0 0.00 0.00 0.00 67 1013.1
20260509130006 51 162 1.0 2.0 0.00 0.00 0.00 65 1013.0
20260509124505 51 162 0.0 2.0 0.00 0.00 0.00 63 1012.9
20260509123003 51 162 0.0 2.0 0.00 0.00 0.00 60 1013.0
20260509121502 50 162 0.0 1.0 0.00 0.00 0.00 61 1013.1
20260509120108 50 158 0.0 3.0 0.00 0.00 0.00 60 1013.4
20260509114606 50 180 0.0 2.0 0.00 0.00 0.00 60 1013.6
20260509113059 50 278 0.0 0.0 0.00 0.00 0.00 60 1013.6
20260509111558 50 278 0.0 1.0 0.00 0.00 0.00 60 1013.3
20260509110057 50 278 0.0 2.0 0.00 0.00 0.00 61 1013.4
20260509104559 50 236 0.0 1.0 0.00 0.00 0.00 60 1013.5
20260509103055 50 198 0.0 4.0 0.00 0.00 0.00 59 1013.0
20260509101555 49 228 1.0 4.0 0.00 0.00 0.00 58 1012.7
20260509100058 49 246 0.0 3.0 0.00 0.00 0.00 61 1012.9
20260509094554 49 198 0.0 4.0 0.00 0.00 0.00 61 1012.8
20260509093052 49 255 0.0 5.0 0.00 0.00 0.00 61 1013.0
20260509091550 49 42 1.0 3.0 0.00 0.00 0.00 61 1012.8
20260509090049 48 157 0.0 2.0 0.00 0.00 0.00 65 1012.9
20260509084553 48 227 0.0 2.0 0.00 0.00 0.00 66 1013.0
20260509083047 48 188 0.0 4.0 0.00 0.00 0.00 66 1013.0
20260509081548 48 238 1.0 5.0 0.00 0.00 0.00 66 1013.1
20260509080043 48 234 0.0 5.0 0.00 0.00 0.00 66 1013.2
20260509074545 48 227 1.0 4.0 0.00 0.00 0.00 67 1013.7
20260509073041 48 184 0.0 2.0 0.00 0.00 0.00 66 1013.3
20260509071544 47 190 1.0 2.0 0.00 0.00 0.00 66 1013.3
20260509070035 48 194 1.0 2.0 0.00 0.00 0.00 67 1013.7
20260509064533 48 194 1.0 2.0 0.00 0.00 0.00 67 1014.0
20260509063034 48 195 0.0 1.0 0.00 0.00 0.00 67 1013.9
20260509061535 48 195 0.0 1.0 0.00 0.00 0.00 67 1014.6
20260509060027 48 195 0.0 1.0 0.00 0.00 0.00 67 1015.0
20260509054525 48 196 0.0 4.0 0.00 0.00 0.00 67 1015.1
20260509053028 48 230 0.0 5.0 0.00 0.00 0.00 67 1015.5
20260509051529 48 191 0.0 3.0 0.00 0.00 0.00 68 1015.7
20260509050022 49 189 0.0 1.0 0.00 0.00 0.00 67 1016.0
20260509044522 49 135 0.0 1.0 0.00 0.00 0.00 67 1016.0
20260509043016 49 135 0.0 2.0 0.00 0.00 0.00 66 1016.1
20260509041514 49 130 0.0 3.0 0.00 0.00 0.00 65 1016.4
20260509040015 50 130 0.0 11.0 0.00 0.00 0.00 64 1016.3
20260509034514 50 182 1.0 7.0 0.00 0.00 0.00 65 1016.3
20260509033011 50 239 1.0 7.0 0.00 0.00 0.00 66 1016.6
20260509031510 50 180 1.0 7.0 0.00 0.00 0.00 66 1016.7
20260509030010 50 154 0.0 2.0 0.00 0.00 0.00 65 1016.4
20260509024510 50 191 0.0 2.0 0.00 0.00 0.00 65 1016.3
20260509023015 50 206 0.0 2.0 0.00 0.00 0.00 65 1016.3
20260509021514 51 200 0.0 1.0 0.00 0.00 0.00 64 1016.3
20260509020008 51 251 1.0 4.0 0.00 0.00 0.00 63 1016.5
20260509014508 51 193 0.0 2.0 0.00 0.00 0.00 63 1016.4
20260509013021 52 192 1.0 3.0 0.00 0.00 0.00 62 1016.2
20260509011507 52 200 0.0 1.0 0.00 0.00 0.00 62 1016.1
20260509010006 52 200 0.0 1.0 0.00 0.00 0.00 61 1016.3
20260509004506 53 200 0.0 2.0 0.00 0.00 0.00 60 1016.2
20260509003005 53 201 0.0 1.0 0.00 0.00 0.00 59 1016.1
20260509001507 54 201 0.0 2.0 0.00 0.00 0.00 56 1016.1
20260509000004 55 202 0.0 2.0 0.00 0.00 0.00 58 1015.9
20260508234506 55 232 0.0 6.0 0.00 0.00 0.00 56 1015.8
20260508233105 56 150 0.0 3.0 0.00 0.00 0.00 54 1015.8
20260508231501 56 192 1.0 3.0 0.00 0.00 0.00 54 1015.8
20260508230103 57 188 1.0 6.0 0.00 0.00 0.00 51 1015.8
20260508224609 58 192 0.0 2.0 0.00 0.00 0.00 45 1016.0
20260508223059 59 198 0.0 2.0 0.00 0.00 0.00 43 1015.8
20260508221604 60 197 1.0 4.0 0.00 0.00 0.00 42 1016.0
20260508220059 61 196 0.0 5.0 0.00 0.00 0.00 43 1016.1
20260508214556 62 205 0.0 4.0 0.00 0.00 0.00 39 1015.9
20260508213114 62 223 1.0 8.0 0.00 0.00 0.00 38 1016.1